Volver al catálogo

ONEWEB-0427

ActivoComunicacionesPO
NORAD 50499·PAYLOAD·🇬🇧 United Kingdom

Lanzado Dec 27, 2021 desde Baikonur Cosmodrome

Loading…

Próximos Pases (próximas 24 horas)

TLE

ActualizadoSource: CelesTrak SupGP

Época: Sep 14, 2026, 23:33 UTC

1 50499C 21132AG  26257.98139307  .00001388  00000+0  35239-2 0  2578
2 50499  87.9167 317.5995 0002009 105.4151 342.5419 13.18682398    12

Sigue ONEWEB-0427 en tiempo real con AllMySat

Download on the App Store